Temperature
20 19 19 19 19 20 20 19 18 18 19 18 17 17 17 18 17 17 17 18 19 20 21 22 22 23 23 23 23 23 22 22 21 20 20 20 19 19 18 18 17 17 17 17
18 19 20 20 19 18 18 18 18 18 18 18 16 16 16 16 16 15 15 15 16 18 20 21 22 23 23 23 24 23 23 22 22 21 20 20 20 19 18 18 17 17 17 17
20 20 20 19 18 18 17 17 18 18 17 17 16 16 15 15 15 15 15 14 15 16 17 20 21 23 23 23 23 23 23 22 21 21 20 20 19 19 18 18 17 17 17 17
20 19 19 19 18 18 17 17 17 17 16 15 16 14 15 13 13 15 15 15 14 14 16 18 19 21 22 22 21 21 21 21 20 20 20 20 20 19 18 17 17 17 17 17
19 18 17 17 17 18 17 16 15 15 15 14 14 14 14 12 13 14 14 14 14 13 14 16 17 18 19 20 19 19 19 20 19 19 19 19 19 19 18 17 17 17 17 17
17 18 17 17 17 17 17 16 15 13 13 14 15 14 14 13 13 13 14 14 14 13 14 15 16 17 17 18 18 18 19 19 18 18 18 18 18 18 18 17 17 17 17 17
15 16 16 17 16 16 15 14 13 14 13 13 15 14 14 14 14 14 14 13 13 13 13 14 16 16 16 16 17 17 18 18 17 17 17 17 17 18 17 17 17 17 17 17
14 14 14 15 14 14 13 14 13 13 13 13 15 14 13 14 14 13 13 13 12 13 13 14 15 16 16 15 15 16 17 16 16 16 16 16 17 17 17 17 17 16 16 16
13 13 14 15 14 13 12 11 11 11 12 13 13 13 14 13 13 13 12 12 12 12 13 14 14 14 14 14 14 14 15 15 15 15 15 16 17 17 17 16 16 16 16 16
13 12 13 13 13 12 11 10 9 10 12 12 13 12 12 11 11 12 11 11 11 12 13 14 14 13 13 13 13 13 14 14 15 15 15 16 17 17 17 17 17 16 16 16
12 12 11 11 11 10 10 10 10 10 10 11 12 12 12 11 11 11 11 11 11 11 12 14 14 14 14 14 14 14 14 15 15 15 16 17 17 17 17 17 17 17 16 16
11 9 9 11 11 11 10 10 10 10 11 11 11 11 12 11 11 11 11 11 11 11 13 14 14 14 14 15 15 15 15 15 15 16 16 17 17 17 18 18 17 17 17 17
11 10 9 10 10 11 10 10 10 11 11 11 11 12 12 11 11 11 11 11 11 11 13 14 14 15 15 15 16 16 16 16 16 16 17 17 17 18 18 17 17 17 17 16
11 9 9 9 9 10 10 11 11 11 11 11 11 11 11 10 10 10 10 11 11 11 12 13 13 14 15 16 17 17 16 16 17 17 18 18 17 17 17 17 17 16 16 16
9 9 10 10 11 11 11 11 11 11 10 10 10 10 10 9 9 9 10 11 11 11 12 13 13 14 14 15 16 16 16 16 17 17 17 17 17 16 16 16 16 16 15 15
9 10 10 10 11 11 10 10 11 10 10 10 10 10 10 9 9 10 10 10 11 11 12 13 13 14 14 14 15 15 16 16 16 16 16 16 16 16 16 16 16 15 15 15
8 9 9 9 10 11 9 9 9 10 9 9 9 9 9 9 10 10 10 10 11 12 12 12 13 13 13 14 14 15 15 15 15 15 15 16 16 16 15 15 14 14 14 14
9 8 7 8 10 9 10 10 10 10 10 9 9 9 9 9 10 11 11 11 12 12 12 12 12 12 12 12 13 13 13 13 13 14 14 14 14 14 14 14 13 13 13 13
8 8 7 7 8 9 10 10 9 9 10 10 10 10 10 10 12 12 12 12 13 13 13 13 13 12 12 12 12 13 12 12 12 12 12 12 13 13 13 13 12 12 12 12
8 7 7 7 9 8 9 10 10 9 10 10 10 10 10 9 10 11 12 13 13 13 13 13 13 13 13 13 13 13 12 12 12 12 12 12 11 11 12 11 11 11 11 11
8 7 7 7 8 8 9 10 10 9 10 10 10 10 10 9 9 11 13 14 14 14 14 14 14 13 13 13 13 13 12 12 12 12 12 11 11 11 11 11 11 11 11 11
8 7 7 7 8 9 11 9 9 9 11 10 11 11 10 11 12 13 13 14 15 14 14 14 14 14 14 14 13 13 13 12 12 12 12 11 11 11 11 11 11 11 11 11
7 8 7 7 8 10 11 11 11 11 11 11 11 11 11 11 12 13 14 14 15 15 15 15 14 14 14 14 14 14 13 13 12 12 12 11 11 11 11 11 11 11 11 11
8 8 7 8 8 10 11 11 11 11 11 11 11 11 11 12 12 13 13 14 15 15 15 15 15 15 15 15 14 14 14 13 13 12 12 11 11 11 11 11 11 11 10 10
8 7 7 8 9 10 11 12 12 12 11 11 11 11 12 12 12 13 13 14 14 15 15 15 15 15 15 15 15 15 14 14 13 12 12 11 11 10 11 11 11 11 10 10
7 7 8 8 10 10 12 12 12 12 12 12 12 12 12 12 12 13 13 13 14 15 15 15 16 16 16 16 15 15 15 14 14 13 12 11 11 11 11 11 11 10 10 10
Wind_Speed
4 4 2 5 5 3 2 3 5 5 2 1 5 8 11 11 11 12 10 8 9 10 10 11 10 13 16 16 15 15 13 10 10 6 5 5 4 4 3 4 5 8 9 10
6 4 6 1 3 4 3 2 5 4 2 1 5 7 6 8 12 14 15 14 12 10 10 10 13 10 14 16 16 16 15 12 11 8 5 3 4 3 3 2 3 6 8 8
2 5 4 3 3 1 2 4 5 4 2 3 4 6 5 7 8 14 16 15 15 13 11 11 12 11 10 12 13 12 12 9 5 4 4 4 4 3 3 2 2 3 6 8
4 7 8 7 5 2 5 4 3 2 1 3 3 5 5 8 11 18 19 18 19 19 14 10 9 7 5 6 9 11 12 12 8 4 4 4 4 4 4 3 3 3 6 7
7 8 10 9 8 4 2 5 4 3 2 3 2 2 6 7 11 17 17 18 19 19 17 12 10 8 4 4 9 11 13 14 10 4 3 3 2 2 2 3 4 4 4 5
7 5 7 6 7 5 3 4 5 5 4 2 4 3 3 6 10 15 16 18 18 18 16 14 12 10 8 6 7 9 12 14 9 4 2 4 4 4 4 4 5 4 3 4
10 8 8 6 8 9 8 4 4 4 1 6 2 4 1 5 8 11 14 16 17 15 14 13 12 10 8 6 5 8 13 14 8 2 3 5 5 6 6 5 5 4 3 3
8 8 8 8 6 6 6 1 3 4 5 4 1 2 2 6 8 9 11 13 16 16 13 11 10 9 7 6 5 9 13 12 7 4 4 3 4 4 3 3 2 2 2 2
4 6 5 7 7 5 7 5 2 3 4 3 2 3 4 12 15 16 17 16 17 16 15 12 11 9 9 8 8 10 12 8 2 5 4 2 1 1 1 1 0 1 2 2
1 5 6 6 7 7 4 3 5 2 3 4 1 3 6 14 18 19 19 18 17 16 15 12 9 8 8 8 9 8 6 2 4 5 1 2 3 3 3 2 2 2 2 1
4 1 7 6 6 6 7 6 4 3 2 2 1 3 5 9 12 15 17 17 16 15 13 9 6 5 6 7 7 4 2 4 5 2 4 6 4 5 5 4 3 3 3 3
3 4 3 4 3 2 2 3 3 3 1 1 1 1 4 8 11 13 16 16 15 13 11 6 3 3 3 2 2 4 5 5 4 5 6 6 5 5 5 5 5 4 5 5
3 5 5 7 7 6 6 6 3 3 1 2 2 2 5 11 14 15 16 16 13 12 10 6 2 4 5 6 6 7 5 5 7 8 6 4 4 4 4 4 3 2 2 3
5 5 4 4 3 6 9 15 14 7 4 3 5 7 10 18 19 18 17 16 13 11 11 10 7 5 3 2 2 2 3 7 8 6 5 4 4 3 3 1 2 2 1 1
5 5 5 5 4 7 13 17 16 14 10 6 8 8 11 18 16 16 17 16 16 15 16 14 12 10 9 9 8 7 5 4 3 2 1 2 2 3 2 3 3 3 1 2
4 4 3 0 2 6 10 17 15 11 10 10 10 7 14 16 13 14 16 17 16 15 15 14 13 12 12 10 9 9 8 7 5 4 2 3 3 2 3 4 5 4 4 4
3 4 3 2 6 2 8 13 12 7 9 9 8 11 17 15 16 13 14 15 14 12 11 12 11 11 10 10 10 10 9 9 9 8 7 6 4 3 3 4 6 6 6 6
4 4 4 3 5 6 4 4 8 6 6 10 11 13 14 14 13 6 8 12 12 10 9 8 8 7 7 7 8 8 9 9 9 9 9 9 9 8 7 8 8 7 5 5
3 6 5 4 4 2 4 4 5 5 5 8 12 15 16 16 8 7 13 15 10 8 6 6 6 5 6 7 7 8 8 7 8 9 9 9 9 8 8 8 7 6 6 7
6 5 5 5 5 1 5 4 1 0 3 5 10 13 14 13 10 10 16 15 12 9 6 7 7 8 9 9 8 9 9 8 8 8 8 7 7 7 7 7 6 6 6 6
4 5 5 4 3 5 6 4 1 3 4 8 7 8 7 6 5 11 14 10 8 6 6 5 6 5 5 6 6 7 7 6 5 5 5 6 6 6 6 6 6 6 6 7
3 3 3 4 3 6 6 3 4 6 5 5 6 5 6 8 10 10 10 10 10 8 6 5 5 5 5 4 2 3 3 3 3 2 4 4 5 4 4 6 6 6 7 7
5 6 5 6 5 5 5 6 5 5 4 5 5 7 7 7 7 8 9 10 9 8 6 4 3 5 5 3 1 1 2 2 1 1 3 4 4 4 4 5 5 5 6 6
3 4 4 2 5 4 5 5 4 4 6 7 7 7 5 5 7 8 9 9 9 8 6 5 4 5 6 5 3 4 3 3 2 1 1 3 4 4 4 4 4 4 5 5
7 7 4 4 5 4 5 7 6 5 6 6 5 4 5 6 6 6 7 8 8 7 7 6 5 6 7 6 5 4 3 3 3 1 1 2 3 4 3 2 2 3 2 2
6 8 8 7 9 8 8 8 6 6 4 2 4 6 6 5 7 6 7 7 7 8 7 7 7 7 8 7 6 5 4 4 4 2 1 1 2 3 3 2 2 2 1 3
Wind_Direction
28 45 284 241 213 203 173 199 254 270 326 331 293 295 321 346 354 341 327 305 293 285 279 285 277 245 222 205 192 185 182 175 166 159 165 170 183 184 193 202 197 196 197 193
24 331 282 298 99 103 128 224 267 287 11 295 307 306 7 8 22 8 359 346 325 305 296 294 288 262 229 211 196 185 180 177 179 176 156 145 144 155 163 166 188 192 188 188
303 299 330 78 68 87 227 221 246 263 349 43 340 320 11 348 6 8 5 356 351 337 317 310 302 275 234 210 194 179 163 151 144 130 115 99 95 95 118 155 180 170 172 174
3 0 30 36 14 293 277 287 233 198 56 309 18 300 331 337 350 7 4 2 360 354 343 332 333 320 266 197 156 143 134 121 109 120 166 180 173 177 184 169 165 155 160 165
6 21 40 26 341 338 338 33 53 49 105 337 344 226 311 346 0 358 358 0 359 358 357 356 360 359 18 100 124 128 125 115 113 130 183 209 170 148 140 144 164 166 167 175
10 18 40 355 342 21 33 29 40 45 69 293 242 181 333 7 347 345 352 356 355 354 356 3 8 13 22 51 95 114 114 102 101 121 180 207 175 163 168 177 178 179 179 185
349 2 3 2 4 2 18 23 342 325 336 246 205 149 101 24 358 349 347 349 349 349 351 359 15 14 17 34 74 101 97 88 76 70 219 214 193 183 191 195 195 189 183 183
1 330 2 12 16 333 337 26 208 250 237 264 205 152 121 26 357 349 346 345 346 346 346 352 11 18 21 27 55 91 87 80 52 346 265 213 184 187 202 206 207 205 189 166
343 296 348 19 16 23 358 353 311 251 265 255 281 32 31 359 355 351 349 347 342 339 340 348 4 19 30 42 56 88 91 85 26 271 250 187 165 117 53 50 160 201 199 188
12 295 327 341 18 27 42 349 15 3 256 238 214 57 4 350 344 340 341 338 330 331 334 342 360 21 28 45 60 69 87 135 242 246 202 66 51 74 104 124 152 203 219 187
44 20 328 12 29 352 3 5 343 295 258 244 181 86 14 336 332 331 329 327 324 326 325 326 343 8 31 43 40 29 305 265 251 201 108 92 103 129 135 139 153 174 181 175
43 92 341 318 331 27 2 317 296 291 319 68 147 121 331 336 334 334 331 329 332 332 325 308 266 236 225 189 215 250 243 228 192 137 117 123 142 154 168 179 185 181 176 174
55 63 12 357 1 357 348 346 321 283 325 15 22 8 350 351 349 347 343 342 345 351 4 9 327 246 239 235 229 231 219 162 139 130 129 149 173 192 203 202 183 165 165 180
85 70 82 64 0 346 1 22 30 30 28 34 12 332 341 351 349 350 353 354 2 12 29 40 38 33 17 324 278 241 148 142 142 144 155 183 210 226 234 203 129 117 136 235
69 81 85 114 92 38 30 23 27 35 29 19 347 341 346 344 342 349 357 3 15 22 27 31 36 39 39 43 47 53 70 105 130 134 136 244 277 308 335 40 55 41 343 284
56 104 112 202 293 27 29 16 13 18 13 3 359 360 342 339 349 358 3 8 15 18 19 19 22 27 31 35 43 52 50 45 57 67 23 323 310 330 14 33 28 12 344 314
69 106 105 339 323 28 19 1 356 3 19 3 358 341 333 344 345 348 356 3 6 8 10 13 15 17 19 20 27 37 36 41 51 48 33 14 8 24 26 20 19 9 352 338
118 102 98 54 44 47 310 323 347 347 16 8 353 345 342 334 316 312 3 1 356 356 359 5 8 13 14 21 29 32 32 37 43 43 37 31 37 42 41 41 33 16 4 358
109 125 103 92 84 24 328 352 4 347 341 355 350 350 350 339 337 0 360 355 344 343 351 355 2 11 19 24 27 42 36 33 39 38 34 30 33 37 36 35 26 17 23 27
44 74 104 104 101 209 261 281 266 183 318 338 344 346 348 356 19 343 333 335 336 344 356 5 6 12 14 6 12 32 25 26 23 20 25 27 32 39 36 31 28 22 30 30
26 41 78 115 135 240 246 272 117 118 271 304 314 319 331 335 280 289 310 324 335 339 348 5 13 7 349 348 16 29 20 10 355 8 30 34 37 47 42 39 33 28 30 31
163 131 149 139 145 230 236 165 162 210 247 277 289 294 306 301 298 308 324 338 346 343 339 354 358 341 327 331 10 21 352 315 317 21 49 42 36 41 44 49 41 36 33 31
189 186 182 186 206 234 216 209 216 205 247 268 269 286 294 295 306 316 325 334 335 332 326 332 338 324 324 332 290 295 285 255 244 35 35 24 25 33 37 47 43 39 37 35
252 152 139 215 258 250 244 249 252 235 242 265 277 285 285 294 307 320 327 331 331 330 331 329 334 329 321 321 299 252 239 194 187 202 357 7 6 5 16 28 35 42 36 31
215 164 166 220 246 247 246 237 245 262 268 290 315 313 313 319 323 319 317 317 323 326 326 330 317 299 292 299 300 277 231 184 183 198 269 354 358 352 354 25 41 44 49 24
195 171 173 207 204 183 212 223 223 226 235 276 325 336 334 324 312 315 313 310 316 320 321 325 322 305 293 289 284 278 236 201 190 195 187 23 2 358 8 31 61 49 39 346
Height
1499 1504 1506 1503 1502 1503 1505 1510 1513 1509 1504 1505 1507 1507 1503 1501 1499 1497 1496 1495 1493 1491 1490 1490 1489 1489 1490 1493 1495 1499 1503 1507 1511 1513 1515 1518 1520 1523 1525 1527 1529 1531 1533 1535
1505 1507 1501 1500 1501 1504 1508 1513 1513 1509 1505 1506 1509 1508 1507 1504 1504 1502 1499 1494 1491 1488 1487 1486 1485 1483 1483 1485 1488 1492 1496 1502 1507 1510 1514 1516 1518 1521 1523 1525 1527 1529 1531 1532
1508 1506 1500 1501 1505 1508 1510 1513 1511 1510 1507 1508 1511 1511 1510 1506 1505 1502 1498 1494 1489 1486 1484 1482 1480 1479 1478 1479 1482 1486 1490 1497 1504 1509 1513 1515 1516 1518 1520 1522 1524 1527 1528 1530
1507 1506 1504 1506 1508 1509 1514 1508 1508 1509 1513 1518 1516 1526 1514 1511 1506 1502 1499 1494 1490 1484 1480 1478 1476 1475 1475 1476 1478 1481 1484 1491 1501 1508 1511 1513 1514 1515 1518 1520 1522 1524 1526 1528
1513 1512 1512 1514 1514 1509 1511 1510 1511 1513 1516 1521 1520 1525 1521 1514 1512 1507 1503 1498 1493 1487 1481 1478 1475 1473 1472 1474 1475 1477 1481 1487 1497 1506 1509 1512 1513 1514 1516 1518 1519 1521 1523 1525
1517 1514 1516 1517 1513 1511 1511 1512 1516 1521 1524 1529 1519 1525 1523 1520 1519 1512 1506 1502 1496 1489 1483 1479 1476 1474 1473 1473 1473 1475 1479 1483 1494 1503 1507 1510 1512 1513 1515 1516 1517 1518 1519 1521
1528 1522 1521 1519 1519 1517 1518 1524 1533 1531 1535 1531 1516 1521 1524 1520 1517 1515 1510 1504 1498 1492 1485 1480 1477 1476 1475 1474 1473 1473 1475 1479 1491 1499 1505 1509 1511 1512 1512 1513 1514 1515 1517 1519
1543 1540 1530 1526 1528 1528 1526 1527 1538 1540 1536 1528 1516 1522 1523 1519 1517 1515 1511 1506 1499 1492 1486 1481 1477 1476 1475 1475 1473 1471 1473 1480 1489 1498 1503 1507 1509 1510 1511 1513 1514 1515 1516 1517
1545 1542 1532 1530 1530 1530 1533 1534 1533 1536 1531 1529 1524 1523 1519 1516 1514 1511 1508 1504 1499 1493 1487 1483 1478 1476 1475 1475 1473 1470 1473 1482 1491 1498 1502 1506 1508 1510 1512 1512 1513 1513 1514 1515
1542 1546 1538 1535 1533 1534 1537 1537 1540 1539 1537 1534 1526 1528 1529 1524 1520 1514 1509 1505 1500 1494 1489 1485 1481 1479 1478 1478 1477 1478 1481 1488 1495 1499 1502 1504 1506 1508 1509 1510 1510 1510 1511 1512
1542 1547 1547 1542 1543 1544 1542 1541 1540 1539 1538 1536 1532 1534 1529 1528 1524 1519 1512 1506 1501 1495 1490 1487 1485 1483 1483 1482 1483 1486 1490 1494 1497 1499 1501 1503 1505 1507 1507 1507 1507 1507 1508 1508
1544 1551 1554 1548 1544 1542 1542 1542 1541 1540 1535 1535 1536 1538 1528 1528 1524 1519 1512 1506 1500 1495 1490 1488 1487 1487 1487 1487 1488 1490 1492 1493 1495 1497 1500 1502 1503 1504 1504 1504 1504 1505 1505 1505
1545 1553 1561 1555 1552 1547 1543 1539 1536 1535 1535 1534 1534 1537 1527 1526 1523 1518 1512 1505 1499 1495 1490 1487 1487 1487 1487 1488 1488 1489 1490 1492 1494 1496 1498 1500 1500 1501 1502 1502 1503 1503 1503 1504
1546 1557 1563 1567 1563 1555 1548 1542 1537 1536 1538 1538 1538 1536 1530 1527 1523 1518 1512 1506 1501 1497 1493 1491 1488 1487 1486 1486 1486 1486 1488 1491 1493 1495 1496 1497 1498 1499 1501 1501 1501 1500 1501 1501
1550 1560 1561 1561 1557 1554 1553 1549 1545 1544 1544 1544 1542 1538 1535 1531 1526 1521 1515 1509 1504 1499 1496 1493 1492 1490 1489 1487 1486 1487 1488 1490 1492 1493 1494 1495 1496 1497 1498 1499 1498 1498 1498 1499
1554 1559 1561 1562 1558 1557 1558 1556 1552 1550 1549 1547 1543 1540 1538 1533 1528 1523 1518 1514 1510 1506 1502 1499 1496 1494 1492 1492 1491 1491 1491 1491 1492 1493 1493 1494 1494 1495 1495 1495 1496 1496 1497 1497
1558 1560 1566 1569 1563 1561 1568 1564 1561 1557 1557 1554 1551 1550 1541 1534 1529 1527 1523 1519 1515 1512 1509 1506 1502 1500 1498 1497 1496 1495 1495 1495 1494 1494 1493 1493 1493 1493 1493 1494 1494 1494 1494 1494
1558 1563 1569 1572 1568 1575 1574 1565 1564 1561 1559 1557 1554 1549 1544 1539 1533 1530 1527 1523 1519 1517 1515 1513 1510 1507 1505 1503 1501 1500 1500 1498 1497 1496 1495 1494 1494 1493 1493 1493 1493 1493 1492 1491
1555 1560 1569 1576 1578 1574 1569 1565 1565 1564 1561 1558 1554 1550 1545 1539 1533 1530 1528 1526 1524 1522 1519 1517 1514 1512 1510 1507 1506 1505 1503 1502 1500 1498 1497 1496 1496 1495 1495 1494 1494 1492 1491 1489
1558 1559 1566 1573 1574 1579 1572 1564 1563 1566 1562 1558 1555 1552 1548 1543 1540 1538 1532 1528 1527 1525 1523 1521 1519 1517 1514 1512 1510 1508 1506 1504 1503 1501 1500 1500 1499 1499 1497 1496 1495 1494 1492 1490
1564 1567 1570 1572 1574 1572 1563 1561 1562 1568 1565 1557 1555 1553 1550 1548 1547 1542 1536 1533 1531 1529 1528 1526 1525 1522 1520 1518 1517 1515 1513 1511 1509 1508 1506 1505 1503 1502 1500 1499 1497 1495 1494 1491
1565 1568 1571 1573 1572 1572 1558 1559 1561 1561 1556 1555 1554 1552 1550 1547 1544 1540 1537 1535 1533 1532 1531 1529 1528 1526 1525 1523 1521 1519 1517 1516 1514 1512 1510 1508 1506 1505 1503 1501 1500 1498 1495 1492
1562 1563 1564 1565 1564 1556 1555 1555 1556 1555 1555 1554 1552 1551 1549 1546 1544 1541 1538 1536 1534 1532 1531 1530 1529 1528 1527 1525 1524 1522 1520 1518 1516 1515 1512 1510 1508 1507 1505 1503 1501 1499 1496 1494
1557 1556 1559 1559 1557 1555 1554 1554 1554 1554 1553 1553 1551 1550 1548 1546 1544 1541 1539 1537 1535 1533 1532 1531 1530 1529 1528 1526 1525 1523 1521 1518 1516 1514 1512 1510 1509 1508 1506 1504 1502 1500 1498 1495
1551 1553 1556 1556 1553 1553 1553 1552 1552 1552 1552 1551 1550 1549 1547 1546 1543 1541 1539 1537 1535 1533 1532 1531 1529 1528 1527 1526 1524 1523 1520 1518 1515 1513 1512 1510 1509 1508 1506 1505 1503 1501 1499 1497
1543 1545 1550 1550 1546 1548 1549 1550 1551 1552 1552 1551 1550 1549 1547 1546 1544 1541 1539 1537 1535 1533 1532 1530 1529 1527 1526 1525 1523 1522 1519 1517 1515 1513 1512 1510 1509 1508 1506 1505 1503 1501 1500 1498